User: anonymous   Login
Location: Unspecified
(0.0000°N, 0.0000°E)
Time: 09:18:42
(UTC+00:00)
Language:

TIANWANG 1B (TW-1B) - Orbit

View from above orbital plane
View from above orbital plane
View from above satellite
View from above satellite

Ground track
Ground track

The orbit data is extracted from the following two-line orbital elements,

1 40927U 15051C   17086.90941149 +.00006793 +00000-0 +17050-3 0  9994
2 40927 097.2493 127.1802 0014331 112.9173 011.8308 15.40225227084356
Epoch (UTC): 27 March 2017 21:49:33
Eccentricity: 0.0014331
inclination: 97.2493°
perigee height: 435 km
apogee height: 455 km
right ascension of ascending node: 127.1802°
argument of perigee: 112.9173°
revolutions per day: 15.40225227
mean anomaly at epoch: 11.8308°
orbit number at epoch: 8435

The dashed part of the orbit path shows where the satellite is in the earth's shadow,  

DLR